[[{"header":{"parameterUnit":"m.s-1","parameterCategory":1,"la1":30.2992,"la2":30.254,"lo1":-89.0895,"lo2":-89.0443,"dy":0.0025,"dx":0.0025,"nx":19,"ny":19,"refTime":"2026-05-02T09:00:00:Z","depth":0,"parameterNumber":2,"parameterNumberName":"U-component_of_WINDS"},"data":[0,0,0,1.9807,1.981,1.9954,1.9954,2.0139,2.0141,0,0,0,0,0,0,0,0,0,0,0,1.9764,1.9765,1.9807,1.9811,1.9954,1.9954,2.0139,2.0141,0,0,0,0,0,0,0,0,0,0,0,1.9764,1.9765,1.9767,1.9811,1.9954,1.9954,2.0139,2.003,0,0,0,0,0,0,0,0,0,0,1.9891,1.985,1.9765,1.9767,1.9812,1.9953,1.9955,2.0025,2.0037,2.0074,0,2.0106,0,2.0126,2.0153,2.0154,0,0,0,1.9812,1.984,1.9879,1.9767,1.9813,1.9953,1.9889,2.0032,2.0045,2.009,2.0109,2.0116,2.0129,2.0154,2.0155,2.0363,2.0363,0,0,1.9804,1.979,1.987,1.9888,1.9864,1.9885,1.9894,2.004,2.006,2.0109,2.012,2.0132,2.0156,2.0157,2.0362,2.0363,0,0,0,1.978,1.9785,1.982,1.988,1.9906,1.9889,1.9899,2.0053,2.0066,2.0122,2.0135,2.0157,2.0159,2.0361,2.0362,2.0392,0,0,0,1.9776,1.9771,1.9816,1.981,1.9903,1.9981,1.9909,2.0056,2.0073,2.0134,2.0157,2.0161,2.036,2.0362,2.0389,2.0409,0,0,0,1.9755,1.9768,1.9789,1.9809,1.9869,1.9979,2.0,2.006,2.008,2.0154,2.0161,2.0359,2.0361,2.0387,2.0404,2.0457,0,0,0,1.973,1.9816,1.9789,1.989,1.9868,1.9996,1.9999,2.0096,2.0163,2.0158,2.036,2.0362,2.0386,2.0402,2.0454,2.0498,2.0515,0,0,1.983,1.9827,1.9888,1.9868,1.9997,1.9976,2.011,2.0185,2.0207,2.031,2.0315,2.039,2.0404,2.0457,2.062,2.0634,0,0,0,1.9915,1.9958,1.9995,2.0057,2.0115,2.0167,2.0222,2.025,2.0338,2.0256,2.0425,2.0434,2.0465,2.0487,2.0498,2.0526,2.0372,2.0372,2.0371,2.0037,2.0057,2.0158,2.0195,2.0255,2.0311,2.0362,2.0409,2.0414,2.0454,2.0484,2.058,2.0605,2.0614,2.0642,2.051,2.051,2.0511,2.0511,2.0185,2.0248,2.025,2.0348,2.037,2.0453,2.0511,2.0511,2.0592,2.056,2.0589,2.0549,2.0628,2.0653,2.0513,2.0513,2.0512,2.0512,2.0512,2.0266,2.0299,2.033,2.0421,2.0489,2.0524,2.0601,2.0619,2.0637,2.0665,2.0698,2.0697,2.0697,2.068,2.068,2.068,2.0681,2.0681,2.0681,2.0336,2.037,2.0432,2.05,2.0541,2.0598,2.0655,2.0697,2.0747,2.0754,2.0754,2.0754,2.0632,2.06,2.0686,2.0685,2.0685,2.0684,2.0684,2.0475,2.0446,2.0541,2.0582,2.0663,2.0728,2.075,2.0833,2.087,2.0907,2.0901,2.0809,2.0807,2.0798,2.0772,2.0897,2.0897,2.0897,2.0897,2.0541,2.0542,2.0642,2.0706,2.0772,2.08,2.0907,2.0952,2.0995,2.1019,2.1004,2.0971,2.0961,2.0966,2.0953,2.0928,2.1091,2.1091,2.1091,2.0627,2.0634,2.0721,2.076,2.0825,2.088,2.0981,2.1055,2.1098,2.11,2.1038,2.103,2.0977,2.0959,2.0957,2.0937,2.0892,0,0]},{"header":{"parameterUnit":"m.s-1","parameterCategory":1,"la1":30.2992,"la2":30.254,"lo1":-89.0895,"lo2":-89.0443,"dy":0.0025,"dx":0.0025,"nx":19,"ny":19,"refTime":"2026-05-02T09:00:00:Z","depth":0,"parameterNumber":3,"parameterNumberName":"V-component_of_WINDS"},"data":[0,0,0,1.8292,1.8293,1.834,1.834,1.8413,1.8414,0,0,0,0,0,0,0,0,0,0,0,1.8287,1.8287,1.8291,1.8293,1.834,1.834,1.8413,1.8414,0,0,0,0,0,0,0,0,0,0,0,1.8286,1.8287,1.8288,1.8293,1.834,1.834,1.8413,1.8372,0,0,0,0,0,0,0,0,0,0,1.8324,1.8329,1.8287,1.8288,1.8293,1.834,1.834,1.837,1.8375,1.8397,0,1.8421,0,1.8419,1.842,1.842,0,0,0,1.8286,1.8325,1.833,1.8288,1.8294,1.834,1.8317,1.8373,1.8378,1.8403,1.8422,1.8424,1.842,1.842,1.8421,1.8573,1.8574,0,0,1.8283,1.83,1.8326,1.8334,1.8329,1.8315,1.8319,1.8376,1.8397,1.8422,1.8426,1.8421,1.8421,1.8421,1.8572,1.8574,0,0,0,1.828,1.8299,1.8301,1.8331,1.8339,1.8317,1.8321,1.8394,1.8393,1.8426,1.8422,1.8421,1.8422,1.8571,1.8573,1.8639,0,0,0,1.8278,1.8297,1.83,1.8311,1.8338,1.8367,1.8338,1.8389,1.8395,1.8422,1.8421,1.8423,1.857,1.8572,1.8634,1.8667,0,0,0,1.828,1.8297,1.8307,1.8312,1.8333,1.8366,1.8369,1.839,1.8393,1.842,1.8423,1.8569,1.8572,1.8631,1.8661,1.8709,0,0,0,1.8287,1.8367,1.8308,1.8396,1.8333,1.8407,1.8368,1.8423,1.8454,1.8422,1.857,1.8573,1.8629,1.8657,1.8706,1.8752,1.8774,0,0,1.8397,1.8381,1.8431,1.8379,1.8468,1.8399,1.8496,1.851,1.8497,1.8548,1.8552,1.8636,1.866,1.8709,1.8893,1.8911,0,0,0,1.8471,1.8507,1.8527,1.8557,1.8568,1.8579,1.8575,1.8579,1.8621,1.8527,1.8667,1.8681,1.8709,1.873,1.8745,1.8766,1.8584,1.8584,1.8583,1.8652,1.863,1.8709,1.8692,1.8721,1.8714,1.8735,1.8739,1.871,1.8743,1.8758,1.8873,1.8899,1.8909,1.8932,1.8783,1.8783,1.8783,1.8783,1.8809,1.8855,1.8811,1.8872,1.8847,1.8898,1.8893,1.887,1.8912,1.8861,1.8884,1.8828,1.8929,1.8947,1.8788,1.8787,1.8787,1.8786,1.8786,1.8923,1.8941,1.8943,1.8981,1.9012,1.8992,1.9033,1.901,1.8988,1.9011,1.9022,1.9021,1.9014,1.9018,1.9019,1.9019,1.9019,1.902,1.902,1.904,1.9041,1.9078,1.9094,1.9107,1.9122,1.9113,1.9126,1.9133,1.9113,1.9113,1.9078,1.8944,1.8909,1.9026,1.9025,1.9024,1.9024,1.9023,1.9205,1.9162,1.9221,1.9234,1.9248,1.9278,1.9247,1.9273,1.928,1.93,1.926,1.9166,1.9147,1.9135,1.9106,1.9267,1.9267,1.9267,1.9267,1.9299,1.9287,1.9339,1.9361,1.938,1.9356,1.9419,1.9412,1.9398,1.94,1.9373,1.9333,1.9322,1.931,1.9295,1.9267,1.9465,1.9465,1.9465,1.9398,1.9385,1.9445,1.9429,1.9437,1.9443,1.95,1.9526,1.9501,1.9473,1.94,1.9392,1.9327,1.9308,1.9277,1.9253,1.9202,0,0]}]]